sat.trackr.live / text

‹ back to catalog

STARLINK-36707

NORAD 67706 · 2026-025P

PAYLOAD ACTIVE UNKNOWN

§ Identity

Operator
Country
US
Launch date
2026-02-07
Launch site
AFWTR
Launch vehicle
Mass (kg)
RCS (m²)

Purposes: comms

External: N2YO · Heavens-Above · Gunter

§ Orbital elements

Epoch: 2026-09-19T13:55:39.199584Z

Period
93.91 min
Inclination
97.2841°
Eccentricity
0.0001464
Mean motion
15.33441124 rev/d
Perigee alt
464.6 km
Apogee alt
466.6 km
Semi-major
6,843.7 km
B*
3.8967e-4
RAAN
12.4741°
Arg perigee
78.3808°
Mean anomaly
281.7599°
Rev number
3,572

§ Raw data

STARLINK-367071 67706U 26025P   26262.58031481  .00012524  00000+0  38967-3 0  99982 67706  97.2841  12.4741 0001464  78.3808 281.7599 15.33441124 35723

JSON: /api/v1/satellites/67706 · /tle

For live sub-satellite position, see the globe view (requires WebGL).

§ Visibility from observer

Set your observer location to see the next 7 days of passes ≥ 10°. The values pass through the URL so the page stays shareable.

No JS? Fill the form by hand. The geolocation button needs JavaScript.